[Iaude] MPEC E182: 2024 EB4 [a=2.17,e=0.63,i=53.9,H=20.9]

mpec at cfa.harvard.edu mpec at cfa.harvard.edu
Thu Mar 14 15:15:27 EDT 2024


M.P.E.C. 2024-E182                               Issued 2024 March 14, 19:13 UT

     The Minor Planet Electronic Circulars contain information on unusual
         minor planets, routine data on comets and natural satellites,
         and occasional editorial announcements.  They are published
    on behalf of Division F of the International Astronomical Union by the
          Minor Planet Center, Smithsonian Astrophysical Observatory,
                          Cambridge, MA 02138, U.S.A.
			  
             Prepared using the Tamkin Foundation Computer Network

                              MPC at CFA.HARVARD.EDU
            URL https://www.minorplanetcenter.net/    ISSN 1523-6714

                                    2024 EB4                                    


Observations:
     K24E04B KC2024 02 24.61761014 59 20.829+32 11 48.70         22.10GVEE182F51
     K24E04B KC2024 02 26.60318814 59 09.602+32 15 41.00         22.41GVEE182F51
     K24E04B KC2024 02 28.63073914 58 38.418+32 19 43.85         22.55GVEE182F51
     K24E04B*1C2024 03 12.41178014 43 28.549+32 35 34.84         21.29GVEE182G96
     K24E04B 1C2024 03 12.41696614 43 27.793+32 35 34.69         20.57GVEE182G96
     K24E04B 1C2024 03 12.42215214 43 26.976+32 35 34.55         20.57GVEE182G96
     K24E04B 1C2024 03 12.42734114 43 26.180+32 35 34.30         20.74GVEE182G96
     K24E04B  C2024 03 12.44132314 43 23.948+32 35 33.07         20.7 GVEE182H01
     K24E04B  C2024 03 12.44415014 43 23.513+32 35 32.91         20.6 GVEE182H01
     K24E04B  C2024 03 12.45735014 43 21.472+32 35 32.18         20.6 GVEE182H01
     K24E04B  C2024 03 12.46756814 43 19.896+32 35 31.60         20.4 GVEE182H01
     K24E04B mC2024 03 12.50370114 43 14.455+32 35 29.87               VEE182I52
     K24E04B mC2024 03 12.50676814 43 13.958+32 35 29.54         20.56GVEE182I52
     K24E04B mC2024 03 12.50866914 43 13.631+32 35 29.83         21.38GVEE182I52
     K24E04B mC2024 03 12.51165214 43 13.199+32 35 29.40         20.86GVEE182I52
     K24E04B KC2024 03 12.93931514 42 10.45 +32 34 56.1          20.8 GVEE182L01
     K24E04B KC2024 03 12.94100114 42 10.19 +32 34 55.9          21.1 GVEE182L01
     K24E04B KC2024 03 12.94268714 42 09.93 +32 34 55.5          21.1 GVEE182L01
     K24E04B KC2024 03 12.94437114 42 09.69 +32 34 55.4          21.1 GVEE182L01
     K24E04B KC2024 03 12.94605714 42 09.39 +32 34 55.5          21.0 GVEE182L01
     K24E04B KB2024 03 12.95853314 42 07.65 +32 34 54.2          19.6 GXEE182958
     K24E04B KB2024 03 12.96381714 42 06.74 +32 34 52.9          19.6 GXEE182958
     K24E04B KB2024 03 12.96910614 42 05.90 +32 34 52.6          19.9 GXEE182958
     K24E04B KB2024 03 12.99920914 42 01.16 +32 34 52.8                XEE182I93
     K24E04B KB2024 03 13.00833214 41 59.72 +32 34 52.2          20.8 GXEE182I93
     K24E04B KB2024 03 13.01707314 41 58.26 +32 34 51.9          21.0 GXEE182I93
     K24E04B 1C2024 03 13.13447 14 41 38.94 +32 34 43.2          21.3 VXEE182033
     K24E04B 1C2024 03 13.13563 14 41 38.74 +32 34 43.4          20.8 VXEE182033
     K24E04B KC2024 03 13.37367514 41 01.565+32 34 27.70         21.83GVEE182I52
     K24E04B KC2024 03 13.38152014 41 00.186+32 34 27.70         21.38GVEE182I52
     K24E04B KC2024 03 13.38937414 40 58.832+32 34 27.62         22.07GVEE182I52
     K24E04B KC2024 03 13.39730314 40 57.522+32 34 26.36         22.48GVEE182I52
     K24E04B KB2024 03 13.92638 14 39 29.64 +32 33 23.5          20.1 RZEE182106
     K24E04B KB2024 03 13.93339 14 39 28.40 +32 33 22.6          21.0 RZEE182106
     K24E04B KB2024 03 13.93996 14 39 27.23 +32 33 22.6          20.0 RZEE182106
     K24E04B KB2024 03 13.94609 14 39 26.17 +32 33 21.7          20.1 RZEE182106
     K24E04B KB2024 03 14.12547 14 38 53.71 +32 33 02.9                VEE182204
     K24E04B KB2024 03 14.14670 14 38 50.41 +32 33 06.9          20.9 VqEE182Y66
     K24E04B KB2024 03 14.14679 14 38 49.78 +32 33 00.0                VEE182204
     K24E04B KB2024 03 14.14763 14 38 50.24 +32 33 06.6          20.9 VqEE182Y66
     K24E04B KB2024 03 14.14843 14 38 50.08 +32 33 06.5          21.0 VqEE182Y66
     K24E04B KB2024 03 14.14923 14 38 49.91 +32 33 06.3          21.1 VqEE182Y66
     K24E04B KB2024 03 14.16806 14 38 45.87 +32 32 57.0          20.6 GVEE182204

Observer details:
033 Karl Schwarzschild Observatory, Tautenburg.  Observers S. Melnikov, C.
    Hogner, F. Ludwig, M. Hartmann, B. Stecklum.  Measurer B. Stecklum.
    1.34-m f/3 Schmidt + CCD.
106 Crni Vrh.  Observer H. Mikuz.  0.60-m f/3.3 reflector + CMO.
204 Schiaparelli Observatory.  Observer L. Buzzi.  0.84-m f/3.5 reflector +
    CMO.
958 Observatoire de Dax.  Observer P. Dupouy.  0.50-m f/4.5 Reflector + CMO.
F51 Pan-STARRS 1, Haleakala.  Observers J. Herman, T. Lowe, P. Minguez, A.
    Schultz, I. Smith.  Measurers K. Chambers, T. de Boer, J. Fairlamb, H.
    Gao, M. Huber, C.-C. Lin, E. Magnier, Y. Ramanjooloo, R. Wainscoat, R.
    Weryk.  1.8-m Ritchey-Chretien + CCD.
G96 Mt. Lemmon Survey.  Observer D. Rankin.  Measurers T. Beuden, V. F.
    Carvajal, D. Fay, J. B. Fazekas, D. C. Fuls, A. R. Gibbs, A. D. Grauer, H.
    Groeller, J. K. Hogan, R. A. Kowalski, S. M. Larson, G. J. Leonard, D.
    Rankin, R. L. Seaman, F. C. Shelly, K. W. Wierzchos.  1.5-m reflector +
    10K CCD.
H01 Magdalena Ridge Observatory, Socorro.  Observers W. H. Ryan, E. V. Ryan.
    Measurer W. H. Ryan.  2.4-m f/8.9 Ritchey-Chretien + CCD.
I52 Steward Observatory, Mt. Lemmon Station.  Observers H. Groeller, G. J.
    Leonard.  Measurers T. Beuden, V. F. Carvajal, D. Fay, J. B. Fazekas, D.
    C. Fuls, A. R. Gibbs, A. D. Grauer, H. Groeller, J. K. Hogan, R. A.
    Kowalski, S. M. Larson, G. J. Leonard, D. Rankin, R. L. Seaman, F. C.
    Shelly, K. W. Wierzchos.  1.0-m prime focus + CCD.
I93 St Pardon de Conques.  Observer F. Losse.  0.40-m f/3.7 reflector + CCD.
L01 Visnjan Observatory, Tican.  Observers K. Korlevic, I. Lyon.  Measurer K.
    Korlevic.  1.0-m f/2.9 reflector + CCD.
Y66 Two-Meter Twin Telescope, TTT2, Teide.  Observer M. Serra.  Measurer M.
    Hierro.  0.80-m f/4.38 reflector + CMO.

Orbital elements:
2024 EB4                                                 Earth MOID = 0.0812 AU
Epoch 2024 Mar. 31.0 TT = JDT 2460400.5                 Veres                   
M 343.36701              (2000.0)            P               Q                  
n   0.30767272     Peri.  251.71737     -0.21623851     +0.96705217             
a   2.1730851      Node     9.57421     -0.24916048     +0.07839465             
e   0.6296192      Incl.   53.87965     -0.94401269     -0.24220731             
P   3.20           H   20.97          G   0.15           U   8                  
Residuals in seconds of arc
240224 F51  0.1+  0.1+    240312 L01  0.4-  0.4+    240313 I52  0.5-  0.0
240226 F51  0.1-  0.1-    240312 L01  0.3-  0.2+    240313 I52  0.1+  0.7-
240228 F51  0.1-  0.1-    240312 L01  0.2-  0.1-    240313 106  0.1+  0.4+
240312 G96  0.3-  0.1+    240312 L01  0.1+  0.2-    240313 106  0.0   0.0
240312 G96  0.2+  0.1+    240312 L01  0.3-  0.0     240313 106  0.1-  0.5+
240312 G96  0.1-  0.2+    240312 958  0.3+  0.3+    240313 106  0.3+  0.0
240312 G96  0.1-  0.1+    240312 958  0.7-  0.8-    240314 204  0.1-  0.1+
240312 H01  0.0   0.0     240312 958  0.7-  1.0-    240314 Y66  0.1+  0.3+
240312 H01  0.0   0.0     240312 I93  0.1+  0.3+    240314 204  0.1-  0.1+
240312 H01  0.1-  0.0     240313 I93  0.4+  0.0     240314 Y66  0.1+  0.0
240312 H01  0.1-  0.0     240313 I93  0.4-  0.0     240314 Y66  0.0   0.1+
240312 I52  0.6+  0.0     240313 033  0.3+  0.4+    240314 Y66  0.3-  0.1-
240312 I52  0.4+  0.1-    240313 033  0.2+  0.7+    240314 204  0.0   0.3+
240312 I52  0.1-  0.3+    240313 I52  0.3+  0.9-
240312 I52  0.3+  0.1+    240313 I52  0.3-  0.4-

Ephemeris:
2024 EB4                 a,e,i = 2.17, 0.63, 54                  q = 0.8049
Date    TT    R. A. (2000) Decl.     Delta      r    Elong.  Phase     V
2024 02 13    14 55 45.4 +31 54 05   0.9507  1.5590   107.1    37.2    23.3
...
2024 02 28    14 58 50.4 +32 18 25   0.6726  1.4198   115.9    38.9    22.4
...
2024 03 07    14 53 06.2 +32 32 59   0.5257  1.3444   121.6    39.0    21.8
...
2024 03 13    14 42 00.2 +32 35 00   0.4172  1.2877   126.7    38.2    21.2
2024 03 14    14 39 16.0 +32 33 24   0.3994  1.2782   127.7    38.0    21.0
2024 03 15    14 36 11.7 +32 30 53   0.3816  1.2688   128.8    37.7    20.9
...
2024 03 21    14 07 50.9 +31 41 16   0.2776  1.2123   136.4    34.5    20.0
...
2024 03 29    12 33 27.8 +24 50 28   0.1557  1.1380   151.8    24.5    18.4
...
2024 04 13    06 46 38.7 -26 23 11   0.1969  1.0060    85.3    83.4    20.4

M. P. C. Staff               (C) Copyright 2024 MPC           M.P.E.C. 2024-E182





More information about the Iaude mailing list